Weather History for LEBA - October, 2013

Change the Weather History Date:

Friday, October 18, 2013

  Actual Average Record
Temperature  
Mean Temperature 65 °F -  
Max Temperature 81 °F - - ()
Min Temperature 49 °F - - ()
Growing Degree Days 15 (Base 50)    
Moisture  
Dew Point 52 °F    
Average Humidity 58    
Maximum Humidity 82    
Minimum Humidity 30    
Precipitation  
Precipitation 0.00 in 0.11 in - ()
Sea Level Pressure  
Sea Level Pressure 29.99 in    
Wind  
Wind Speed 3 mph ()    
Max Wind Speed 13 mph    
Max Gust Speed -    
Visibility 11.5 miles    
Events      
T = Trace of Precipitation, MM = Missing Value Source: Averaged Metar Reports

Daily Weather History Graph

Daily Weather History Graph

Search for Another Location

Airport or City:

Trip Planner

Search our weather history database for the weather conditions in past years. The results will help you decide how hot, cold, wet, or windy it might be!

Date:

Astronomy

Oct. 18, 2013 Rise Set
Actual Time 8:30 AM CEST 7:37 PM CEST
Civil Twilight 8:04 AM CEST 8:04 PM CEST
Nautical Twilight 7:33 AM CEST 8:34 PM CEST
Astronomical Twilight 7:03 AM CEST 9:05 PM CEST
Moon 7:19 PM CEST (10/18) 7:51 AM CEST (10/18)
Length of Visible Light 12h 00m
Length of Day
11h 06m
Full, 100% of the Moon is Illuminated
Oct 18
Full
Oct 19
Full
Oct 27
Last Quarter
Nov 3
New
Nov 10
First Quarter

Hourly Weather History & Observations

Time (CEST) Temp. Heat Index Dew Point Humidity Pressure Visibility Wind Dir Wind Speed Gust Speed Precip Events Conditions
2:00 AM 57 °F - 50 °F 70% 29.99 in - Calm Calm - -  
7:00 AM 51.8 °F - 46.4 °F 82% 29.98 in - Calm Calm - N/A   Clear
8:00 AM 50 °F - 46 °F 81% 30.00 in 12 mi Calm Calm - -  
8:00 AM 51.8 °F - 46.4 °F 82% 29.98 in - Calm Calm - N/A   Clear
9:00 AM 50.0 °F - 44.6 °F 82% 30.01 in - Calm Calm - N/A   Clear
10:00 AM 57.2 °F - 46.4 °F 67% 30.01 in - Calm Calm - N/A   Clear
10:24 AM 60.8 °F - 50.0 °F 68% 30.01 in - Variable 1.2 mph - N/A   Clear
11:00 AM 64.4 °F - 48.2 °F 56% 30.04 in - East 3.5 mph - N/A   Clear
12:00 PM 69.8 °F - 48.2 °F 46% 30.04 in - Calm Calm - N/A   Clear
1:00 PM 73.4 °F - 51.8 °F 47% 30.01 in - Calm Calm - N/A   Clear
2:00 PM 76 °F - 51 °F 30% 29.99 in 19 mi West 4.6 mph - -   Clear
2:00 PM 75.2 °F - 53.6 °F 47% 29.98 in - West 3.5 mph - N/A   Clear
3:00 PM 78.8 °F - 51.8 °F 39% 29.98 in - West 10.4 mph - N/A   Clear
4:00 PM 78.8 °F - 53.6 °F 42% 29.95 in - WSW 12.7 mph - N/A   Clear
5:00 PM 80.6 °F 80.5 °F 55.4 °F 42% 29.95 in - West 9.2 mph - N/A   Clear
6:00 PM 77.0 °F - 57.2 °F 50% 29.95 in - West 11.5 mph - N/A   Clear
7:00 PM 75.2 °F - 59.0 °F 57% 29.95 in - West 10.4 mph - N/A   Clear
8:00 PM 74 °F - 58 °F 47% 29.97 in 9 mi WSW 10.4 mph - -   Mostly Cloudy
8:00 PM 73.4 °F - 59.0 °F 61% 29.98 in - WSW 9.2 mph - N/A   Clear
9:00 PM 71.6 °F - 57.2 °F 60% 30.01 in 6.2 mi West 8.1 mph - N/A   Partly Cloudy